Погода в Коцюбинское

Украина / Киевская область     50°29′17″N   30°20′07″E
темп.,
°C
ветер,
м/с
пор.,
м/с
влажн.,
%
обл.,
%
осадки,
мм/ч
давл.,
гПа
погр.,
м
7 мая, пт
пт700:00+8зюз356286 0.0 1013102
03:00+6зюз236547 0.0 101444
06:00+6ююз3472100 0.0 101374
09:00+11ююз3660100 0.0 1013406
12:00+15ю6945100 0.0 10111907
15:00+15ю71361100 0.1 10091587
18:00+14ю4879100 1.8 1007473
21:00+11зюз2691100 3.3 1007225
8 мая, сб
сб800:00+11юз1197100 1.7 100653
03:00+10зсз2697100 5.6 1005301
06:00+9з3795100 1.4 1006318
09:00+6зсз81391100 2.6 1009728
12:00+7з711796 0.3 1011913
15:00+7з81072100 0.4 10131403
18:00+5сз71188100 0.1 1015819
21:00+6зсз6118598 0.1 1017885
9 мая, вс
вс900:00+4зсз513885 0.0 1019429
03:00+3зсз412900 0.0 1021368
06:00+2зсз310920 0.0 1023249
09:00+8сз58675 0.0 1024721
12:00+12зсз574894 0.0 10241970
15:00+13ссз4643100 0.0 10242156
18:00+13ссв234960 0.0 10251175
21:00+9вюв116133 0.0 102712
10 мая, пн
пн1000:00+7ююз23695 0.0 102737
03:00+6ююз22740 0.0 102821
06:00+6юв11745 0.0 102913
09:00+12юв23540 0.0 1029424
12:00+16вюв22380 0.0 10281457
15:00+17всв33320 0.0 10271724
18:00+16св44410 0.0 10261041
21:00+11всв24610 0.0 1027119
11 мая, вт
вт1100:00+9св23690 0.0 102767
03:00+7св24770 0.0 102680
06:00+7ссв36812 0.0 1026135
09:00+13св47560 0.0 1025461
12:00+18св56520 0.0 1023730
15:00+20св57510 0.0 10211104
18:00+20св586119 0.0 10211314
21:00+15вюв511888 0.6 1021650